Date,TemperatureHighF,TemperatureAvgF,TemperatureLowF,DewpointHighF,DewpointAvgF,DewpointLowF,HumidityHigh,HumidityAvg,HumidityLow,PressureMaxIn,PressureMinIn,WindSpeedMaxMPH,WindSpeedAvgMPH,GustSpeedMaxMPH,PrecipitationSumIn
2013-4-1,90.0,77.6,71.2,70.8,66.7,61.1,87,71,42,29.85,29.73,12,4,21,0.06
2013-4-2,87.4,75.3,66.6,68.2,65.6,63.4,93,73,50,29.87,29.78,8,3,14,0.00
2013-4-3,86.9,77.6,69.6,70.3,68.1,63.9,86,73,56,29.86,29.78,11,3,17,0.00
2013-4-4,87.3,76.4,67.6,73.6,69.9,64.9,94,81,63,29.84,29.69,19,4,32,1.77
2013-4-5,74.1,69.3,66.2,71.0,66.0,60.3,94,89,79,29.78,29.61,12,3,19,0.83
2013-4-6,81.5,69.9,59.9,67.2,61.2,57.3,93,75,56,29.88,29.71,13,6,20,0.00
2013-4-7,83.5,74.3,70.9,65.2,62.8,60.5,78,68,51,29.93,29.81,14,4,19,0.00
2013-4-8,85.8,74.7,61.2,68.6,61.5,57.5,91,65,40,29.93,29.84,10,2,17,0.00
2013-4-9,85.8,77.3,71.8,69.9,66.2,64.1,79,69,57,29.94,29.83,11,3,19,0.00
2013-4-10,88.2,79.3,73.4,72.9,70.1,65.7,83,74,59,29.90,29.78,11,3,18,0.00
2013-4-11,86.0,79.6,75.9,73.6,71.8,70.1,86,77,64,29.81,29.68,12,5,21,0.00
2013-4-12,89.2,80.8,76.8,77.7,74.1,72.4,91,80,65,29.74,29.64,13,5,23,0.40
2013-4-13,86.7,79.0,74.1,75.0,72.7,69.8,90,81,63,29.76,29.66,9,3,15,0.01
2013-4-14,88.9,81.0,72.5,75.6,73.6,69.5,92,79,61,29.76,29.67,12,3,21,0.00
2013-4-15,94.8,80.0,70.9,77.7,73.1,67.8,93,80,54,29.85,29.71,17,3,26,0.28
2013-4-16,89.4,79.8,71.4,77.3,72.6,68.5,94,80,59,29.91,29.81,12,3,20,0.00
2013-4-17,87.3,79.8,74.8,71.7,69.9,67.7,85,72,57,29.91,29.81,11,4,17,0.00
2013-4-18,89.4,81.6,75.4,74.8,71.2,68.6,83,71,58,29.85,29.77,11,3,21,0.00
2013-4-19,89.6,82.7,77.9,75.4,72.9,70.4,88,73,55,29.84,29.75,12,5,24,0.01
2013-4-20,94.6,79.4,70.7,77.7,73.5,68.6,95,83,57,29.87,29.73,23,2,30,1.61
2013-4-21,89.8,78.9,72.5,75.3,72.3,67.8,94,81,54,29.88,29.76,11,3,19,0.12
2013-4-22,89.6,75.7,69.6,73.1,70.1,67.2,95,84,58,29.84,29.71,14,2,21,0.87
2013-4-23,85.1,76.4,68.5,70.9,66.3,61.0,94,73,54,29.88,29.73,17,6,26,0.01
2013-4-24,87.8,78.8,70.2,66.9,63.6,60.1,72,60,48,29.93,29.82,11,4,15,0.00
2013-4-25,88.5,77.7,70.7,64.5,62.0,60.1,71,59,44,29.99,29.86,11,3,17,0.00
2013-4-26,85.5,77.1,68.5,67.5,64.0,60.3,78,64,52,30.01,29.90,12,4,20,0.00
2013-4-27,86.5,78.3,72.1,68.1,64.4,60.3,80,63,48,30.00,29.87,11,5,19,0.00
2013-4-28,87.1,79.0,73.4,66.1,64.0,61.0,75,61,48,29.91,29.78,10,4,17,0.00
2013-4-29,88.5,79.3,74.7,73.6,68.5,62.6,82,70,55,29.83,29.73,10,3,18,0.00
2013-4-30,86.2,76.5,68.2,74.7,70.5,65.8,94,82,62,29.79,29.71,17,2,29,1.54